Norfolk, NE

10:55 PM CDT on September 20, 2017 (GMT -0500)
Stefan Memorial

Weather History for KOFK - March, 2013

Change the Weather History Date:

Sunday, March 17, 2013

  Actual Average Record
Temperature  
Mean Temperature 34 °F 38 °F  
Max Temperature 44 °F 49 °F 84 °F (2012)
Min Temperature 23 °F 27 °F -9 °F (1906)
Degree Days  
Heating Degree Days 31 27  
Month to date heating degree days 552 517  
Since 1 July heating degree days 5473 5610  
Cooling Degree Days 0 0  
Month to date cooling degree days 0 0  
Year to date cooling degree days 0 0  
Moisture  
Dew Point 24 °F    
Average Humidity 71    
Maximum Humidity 92    
Minimum Humidity 49    
Precipitation  
Precipitation 0.04 in 0.06 in 1.49 in (1987)
Month to date precipitation 0.89 0.81  
Year to date precipitation 1.79 2.16  
Snow  
Snow T in 0.10 in - ()
Month to date snowfall 2.8 2.9  
Since 1 July snowfall 17.7 25.7  
Snow Depth T in    
Sea Level Pressure  
Sea Level Pressure 29.94 in    
Wind  
Wind Speed 13 mph (ESE)    
Max Wind Speed 25 mph    
Max Gust Speed 31 mph    
Visibility 10 miles    
Events Rain , Snow    
T = Trace of Precipitation, MM = Missing Value Source: NWS Daily Summary

Daily Weather History Graph

Daily Weather History Graph

Search for Another Location

Airport or City:

Trip Planner

Search our weather history database for the weather conditions in past years. The results will help you decide how hot, cold, wet, or windy it might be!

Date:

Astronomy

Mar. 17, 2013 Rise Set
Actual Time 7:37 AM CDT 7:38 PM CDT
Civil Twilight 7:09 AM CDT 8:06 PM CDT
Nautical Twilight 6:37 AM CDT 8:39 PM CDT
Astronomical Twilight 6:04 AM CDT 9:12 PM CDT
Moon 10:46 AM CDT (3/17) 12:53 AM CDT (3/17)
Length of Visible Light 12h 56m
Length of Day
12h 01m
Waxing Crescent, 31% of the Moon is Illuminated
Mar 17
Waxing Crescent
Mar 19
First Quarter
Mar 27
Full
Apr 2
Last Quarter
Apr 10
New

Hourly Weather History & Observations

Time (CDT) Temp. Windchill Dew Point Humidity Pressure Visibility Wind Dir Wind Speed Gust Speed Precip Events Conditions
12:56 AM 28.9 °F 19.8 °F 24.1 °F 82% 30.17 in 10.0 mi East 10.4 mph - 0.00 in   Overcast
1:04 AM 28.4 °F 18.0 °F 24.8 °F 86% 30.10 in 8.0 mi East 12.7 mph - 0.00 in Snow Light Snow
1:22 AM 28.4 °F 18.5 °F 23.0 °F 80% 30.10 in 9.0 mi East 11.5 mph - 0.00 in   Overcast
1:42 AM 26.6 °F 16.2 °F 24.8 °F 93% 30.08 in 10.0 mi East 11.5 mph - 0.00 in   Overcast
1:56 AM 27.0 °F 16.7 °F 23.0 °F 85% 30.14 in 10.0 mi ENE 11.5 mph - 0.00 in   Overcast
2:56 AM 27.0 °F 19.5 °F 21.9 °F 81% 30.13 in 9.0 mi East 6.9 mph - N/A   Overcast
3:56 AM 26.1 °F 17.6 °F 21.0 °F 81% 30.12 in 10.0 mi ESE 8.1 mph - N/A   Overcast
4:56 AM 25.0 °F 13.6 °F 19.9 °F 81% 30.09 in 10.0 mi East 12.7 mph - N/A   Overcast
5:56 AM 24.1 °F 13.7 °F 19.0 °F 81% 30.08 in 10.0 mi East 10.4 mph - N/A   Overcast
6:09 AM 24.8 °F 15.3 °F 19.4 °F 80% 30.03 in 10.0 mi East 9.2 mph - N/A   Overcast
6:34 AM 24.8 °F 14.6 °F 19.4 °F 80% 30.02 in 10.0 mi East 10.4 mph - N/A   Overcast
6:41 AM 24.8 °F 12.9 °F 19.4 °F 80% 30.01 in 10.0 mi East 13.8 mph - N/A   Overcast
6:56 AM 23.0 °F 13.1 °F 19.0 °F 85% 30.09 in 10.0 mi East 9.2 mph - N/A   Overcast
7:11 AM 23.0 °F 11.1 °F 19.4 °F 86% 30.02 in 10.0 mi East 12.7 mph - N/A   Overcast
7:56 AM 23.0 °F 13.1 °F 19.0 °F 85% 30.09 in 10.0 mi ESE 9.2 mph - N/A   Overcast
8:56 AM 24.1 °F 13.7 °F 19.9 °F 84% 30.09 in 10.0 mi ESE 10.4 mph - N/A   Overcast
9:46 AM 26.6 °F 15.7 °F 19.4 °F 74% 30.03 in 10.0 mi SE 12.7 mph - N/A   Overcast
9:56 AM 26.1 °F 15.0 °F 19.0 °F 75% 30.07 in 10.0 mi SE 12.7 mph - N/A   Mostly Cloudy
10:56 AM 30.0 °F 17.9 °F 17.1 °F 59% 30.03 in 10.0 mi SE 18.4 mph 21.9 mph N/A   Clear
11:56 AM 32.0 °F 20.5 °F 19.0 °F 59% 29.98 in 10.0 mi ESE 18.4 mph 24.2 mph N/A   Clear
12:56 PM 36.0 °F 26.3 °F 21.0 °F 55% 29.95 in 10.0 mi SE 16.1 mph 21.9 mph N/A   Clear
1:56 PM 36.0 °F 26.0 °F 21.9 °F 57% 29.90 in 10.0 mi SE 17.3 mph - N/A   Mostly Cloudy
2:56 PM 39.0 °F 29.3 °F 23.0 °F 53% 29.85 in 10.0 mi SSE 19.6 mph 25.3 mph N/A   Overcast
3:56 PM 42.1 °F 33.1 °F 25.0 °F 51% 29.79 in 10.0 mi SSE 20.7 mph 28.8 mph N/A   Mostly Cloudy
4:56 PM 41.0 °F 32.8 °F 27.0 °F 57% 29.77 in 10.0 mi SSE 16.1 mph 25.3 mph N/A   Mostly Cloudy
5:56 PM 42.1 °F 34.9 °F 28.0 °F 58% 29.76 in 10.0 mi South 13.8 mph - N/A   Mostly Cloudy
6:56 PM 42.1 °F 36.6 °F 28.9 °F 60% 29.76 in 10.0 mi SSE 9.2 mph - N/A   Overcast
7:56 PM 41.0 °F 35.8 °F 30.0 °F 65% 29.76 in 10.0 mi SE 8.1 mph - N/A   Overcast
8:56 PM 39.9 °F 34.5 °F 30.9 °F 70% 29.77 in 10.0 mi SE 8.1 mph - N/A   Overcast
9:24 PM 39.2 °F 30.5 °F 32.0 °F 75% 29.71 in 8.0 mi SE 16.1 mph - 0.00 in Rain Light Rain
9:56 PM 37.9 °F 28.9 °F 33.1 °F 83% 29.73 in 8.0 mi SE 16.1 mph 23.0 mph 0.03 in Rain Light Rain
10:14 PM 37.4 °F 26.9 °F 33.8 °F 87% 29.67 in 10.0 mi SSE 20.7 mph 31.1 mph 0.00 in Rain Light Rain
10:56 PM 37.0 °F 27.0 °F 33.1 °F 86% 29.72 in 10.0 mi SSE 18.4 mph 27.6 mph 0.00 in   Scattered Clouds
11:07 PM 37.4 °F 27.8 °F 33.8 °F 87% 29.67 in 10.0 mi SSE 17.3 mph - N/A   Mostly Cloudy
11:32 PM 37.4 °F 28.5 °F 33.8 °F 87% 29.65 in 10.0 mi SE 15.0 mph - 0.01 in   Overcast
11:56 PM 36.0 °F 26.7 °F 34.0 °F 93% 29.69 in 9.0 mi SSE 15.0 mph 24.2 mph 0.01 in   Overcast